Location: Fredericton
(45.9636°N, 66.6431°W)
Time: 05:58:48
(UTC-03:00)

Envisat - Pass Details

Date: 30 January 2022
Orbit: 764 x 765 km, 98.2° (Epoch: 17 May)

Event Time Altitude Azimuth Distance (km) Brightness Sun altitude
Rises 06:09:00 0° 7° (N) 3,242 6.2 -17.8°
Reaches altitude 10° 06:11:26 10° 360° (N) 2,312 5.4 -17.4°
Maximum altitude 06:16:08 39° 292° (WNW) 1,131 3.4 -16.6°
Drops below altitude 10° 06:20:50 10° 224° (SW) 2,298 5.1 -15.8°
Sets 06:23:14 0° 217° (SW) 3,221 6.0 -15.4°
